Temperature
16 16 16 16 16 15 15 15 15 15 15 15 15 15 15 14 14 14 14 14 14 14 14 14 14 14 14 14 13 13 13 13 13 12 12 12 12 12 12 12 12 11 11
16 16 16 16 16 15 15 15 15 15 15 15 15 15 15 14 14 14 14 14 14 14 14 14 14 14 14 13 13 13 13 13 12 12 12 12 12 11 12 12 11 11 11
16 16 16 16 16 15 15 15 15 15 15 15 15 15 14 14 14 14 14 14 14 14 14 14 13 13 13 13 13 13 13 13 12 12 12 12 11 11 11 11 11 11 11
16 16 16 16 16 15 15 15 15 15 15 15 15 15 14 14 14 14 14 14 14 14 14 13 13 13 13 13 13 13 13 12 12 12 12 11 11 11 11 11 11 11 10
16 16 16 16 16 15 15 15 15 15 15 15 15 15 14 14 14 14 14 14 14 13 13 13 13 13 13 13 13 12 12 12 12 12 11 11 11 11 11 11 10 10 10
15 16 16 16 15 15 15 15 15 15 15 15 14 14 14 14 14 14 14 14 14 13 13 13 13 13 13 13 13 13 12 12 11 11 11 11 11 10 10 10 10 10 9
15 15 15 15 15 15 15 15 15 15 15 15 14 14 14 14 14 14 14 14 14 13 13 13 13 13 13 12 12 12 12 12 12 11 11 10 10 10 10 10 9 9 9
15 15 15 15 15 15 15 15 15 14 14 14 14 14 14 14 14 14 14 14 13 13 13 13 12 12 12 12 12 11 12 11 11 11 10 10 10 10 10 10 9 9 8
15 15 15 15 15 15 15 15 15 14 14 14 14 14 14 14 14 14 14 13 13 13 13 13 12 12 12 12 11 11 11 11 11 11 11 10 10 10 10 9 9 9 8
15 15 15 15 15 15 15 15 14 14 14 14 14 14 14 13 14 14 13 13 13 13 12 12 12 12 12 11 11 11 10 10 10 10 10 10 10 10 9 9 9 8 7
15 15 15 15 15 15 15 14 14 14 14 14 14 13 13 13 13 13 13 13 13 12 12 12 12 12 11 11 11 10 10 10 10 9 9 9 9 9 9 8 8 7 7
15 15 15 15 15 14 14 14 14 14 14 14 13 13 13 13 13 13 13 13 12 12 12 11 11 11 11 11 10 10 10 10 9 9 9 9 8 8 8 8 7 7 7
15 15 14 14 14 14 14 14 14 14 14 13 13 13 13 13 13 13 12 12 12 12 11 11 11 11 10 10 10 10 10 9 9 9 8 8 8 7 7 7 7 6 6
14 14 14 14 14 14 14 14 14 14 13 13 13 13 13 13 13 12 12 12 11 11 11 11 10 10 10 10 10 9 9 9 8 8 8 7 7 7 7 6 6 6 5
14 14 14 14 14 14 14 14 14 14 13 13 13 13 12 12 12 12 12 11 11 11 11 10 10 10 9 9 9 9 8 8 8 8 7 7 7 6 6 6 5 5 5
14 14 14 14 14 14 14 14 14 13 13 13 13 12 12 12 12 12 11 11 11 11 10 10 9 9 9 9 8 8 8 8 8 7 7 6 6 6 6 5 5 5 4
13 13 14 13 13 14 13 13 13 13 13 12 12 12 12 12 11 11 11 11 10 10 10 9 9 9 9 8 8 8 8 7 7 7 6 6 6 5 5 5 4 4 4
13 13 13 13 13 13 13 13 12 12 12 12 12 12 12 11 11 11 10 10 10 9 9 9 9 9 8 8 8 8 7 7 7 6 6 5 5 5 5 4 4 4 3
13 13 13 13 13 12 12 12 12 12 11 11 11 11 11 11 10 10 10 10 9 9 9 9 9 8 8 8 7 7 7 7 6 6 5 5 5 4 4 4 4 3 3
12 12 12 12 12 12 12 11 11 11 11 11 11 11 10 10 10 10 9 9 9 9 9 8 8 8 8 7 7 7 6 6 6 6 5 5 4 4 4 4 3 3 2
12 12 12 12 11 11 11 11 11 11 11 11 11 11 10 10 10 9 9 9 9 9 8 8 8 8 7 7 7 6 6 6 6 5 5 5 4 4 4 3 3 2 2
11 11 11 11 11 11 11 11 11 10 10 10 10 10 10 9 9 9 9 8 8 8 8 8 7 7 7 7 6 6 6 6 5 5 5 4 4 4 3 3 2 2 2
11 11 11 11 10 10 10 10 10 10 10 10 10 9 9 9 8 8 8 8 8 8 7 7 7 7 7 6 6 6 5 5 5 5 4 4 4 3 3 2 2 2 1
10 10 10 10 10 10 10 10 9 9 9 9 9 9 8 8 8 8 8 8 7 7 7 7 6 6 6 6 6 5 5 5 5 4 4 3 3 2 2 2 2 1 1
10 10 10 10 9 9 9 9 9 9 9 8 8 8 8 8 7 7 7 7 7 7 6 6 6 6 6 5 5 5 5 5 4 4 3 3 2 2 2 1 1 1 0
9 9 9 9 9 9 9 9 9 8 8 8 8 8 7 7 7 7 7 6 6 6 6 6 6 5 5 5 5 5 5 4 4 3 3 2 2 2 1 1 1 0 0
Wind_Speed
6 6 5 4 4 4 3 3 3 3 4 4 3 3 3 3 3 2 1 1 1 1 1 1 1 1 0 0 0 0 1 1 0 1 1 2 2 3 3 3 3 3 4
6 6 5 5 5 4 4 4 4 4 4 4 4 3 3 3 2 2 2 1 1 0 0 1 1 1 0 0 0 0 0 1 1 1 1 1 2 3 3 3 3 3 3
5 6 6 6 5 5 4 4 4 4 4 4 4 3 3 3 3 2 2 2 1 1 0 1 1 1 0 0 0 0 0 0 1 1 1 1 2 2 2 2 2 3 2
5 6 6 6 5 5 4 4 4 4 4 4 4 3 3 3 3 3 2 2 1 1 0 0 1 1 1 1 0 0 0 0 0 1 1 1 1 2 2 2 2 2 2
6 7 7 6 5 5 5 4 4 4 4 4 3 3 3 3 2 3 3 2 2 2 1 1 2 3 5 3 2 1 0 1 1 1 1 1 1 2 2 2 3 2 1
7 7 6 6 6 6 5 5 5 4 4 4 4 3 3 2 3 1 2 3 2 2 2 1 2 3 3 3 4 5 4 1 0 0 1 1 2 2 3 3 3 3 2
6 6 6 7 7 6 6 6 5 5 5 4 4 4 3 3 5 4 3 2 2 2 2 1 1 1 2 2 4 3 2 3 3 2 1 2 3 3 3 3 3 3 3
6 6 6 7 7 6 6 6 6 5 5 5 4 4 3 3 5 5 4 4 3 2 2 2 2 2 2 2 2 2 2 1 0 1 1 2 4 4 3 3 4 3 2
5 6 6 7 7 7 7 7 6 5 5 5 4 4 4 4 5 4 4 3 3 2 2 2 2 2 3 2 2 2 1 1 3 2 4 4 6 6 5 2 2 2 3
6 6 6 7 7 7 7 7 6 6 5 5 4 4 4 3 5 5 5 3 3 3 2 2 2 1 3 3 3 2 2 1 1 2 1 1 1 2 2 2 2 3 3
5 5 6 7 7 7 6 6 6 6 5 5 5 4 4 3 5 6 5 4 3 3 3 2 2 5 4 3 2 2 1 1 1 0 0 1 1 1 2 2 3 3 3
5 5 6 6 6 6 6 6 6 6 6 5 5 4 3 3 3 6 6 4 2 3 2 2 3 6 5 3 2 2 2 1 1 0 0 1 1 1 1 2 2 3 3
5 6 6 6 6 6 7 7 6 6 5 5 5 4 4 3 4 6 7 6 5 3 2 3 5 6 5 3 3 2 2 1 1 1 1 1 1 1 1 1 1 2 2
6 6 6 6 5 5 5 5 6 6 5 5 5 5 4 4 4 5 5 6 6 5 4 4 6 5 3 2 3 2 1 1 1 2 2 1 1 0 0 1 1 1 2
5 5 5 5 5 5 5 4 6 5 5 5 5 5 5 5 4 5 5 5 5 5 5 4 4 4 3 3 2 2 2 1 1 2 2 2 1 1 1 1 1 2 2
5 5 4 4 4 5 5 4 2 2 4 4 2 3 3 4 5 7 7 6 6 7 5 4 4 4 4 3 3 3 2 2 2 2 2 2 2 2 1 1 1 2 2
5 5 4 4 5 5 5 5 4 3 3 3 4 4 4 5 6 7 8 8 7 7 5 4 4 4 4 4 3 3 3 3 3 3 3 3 2 2 2 2 2 2 2
5 4 4 4 4 5 5 5 5 5 4 3 3 5 6 6 6 6 7 7 5 5 5 5 5 4 4 4 4 3 3 3 3 3 3 3 3 3 3 3 2 2 3
5 4 4 4 4 4 5 5 5 5 4 4 3 4 6 6 6 6 7 5 5 5 5 5 4 4 4 4 3 3 3 3 3 3 3 3 3 3 3 3 3 3 3
5 4 4 4 5 5 5 5 5 5 5 4 4 3 4 4 4 4 4 4 4 4 4 5 4 4 4 4 3 3 4 4 4 4 3 3 3 3 3 3 3 3 3
4 4 5 5 5 5 5 5 5 5 5 4 4 4 4 4 4 5 4 4 4 4 4 4 4 4 3 3 3 4 4 3 3 3 3 3 3 3 3 3 3 3 3
4 4 5 5 4 4 5 5 5 5 5 5 4 4 6 4 4 4 4 4 4 4 4 4 3 3 3 4 4 4 4 4 3 3 3 3 3 3 2 2 2 2 2
4 5 5 5 4 4 4 4 4 5 5 5 4 4 4 4 4 4 4 4 4 3 3 3 3 3 3 4 4 4 4 4 3 3 3 3 3 3 3 3 3 3 3
5 5 5 4 4 4 4 4 4 4 4 4 4 4 4 4 4 4 4 3 3 3 3 3 4 4 4 4 4 4 4 4 4 4 5 4 3 3 3 3 3 3 3
5 5 5 5 4 4 5 5 5 5 5 5 4 4 4 4 4 4 4 3 4 4 4 4 4 4 5 5 4 4 4 4 4 4 4 4 4 4 4 3 3 3 3
4 5 5 5 5 5 5 5 5 5 5 5 4 4 4 4 4 4 4 3 4 4 4 4 4 5 5 5 5 5 5 5 6 5 5 4 4 4 4 3 4 3 3
Wind_Direction
205 201 194 194 198 199 205 206 204 193 186 186 185 179 170 162 150 146 153 151 146 134 141 95 56 28 106 105 189 298 323 322 329 8 42 30 29 20 24 12 7 14 47
207 205 200 195 199 201 200 202 202 197 195 196 189 189 183 180 173 164 163 166 147 134 42 68 56 90 54 17 233 251 311 300 281 305 5 14 10 11 5 6 8 12 25
203 204 203 198 198 200 200 195 196 197 196 195 192 192 190 191 188 187 184 188 170 161 76 14 355 5 38 98 241 279 287 304 289 258 320 358 349 358 352 357 11 7 14
200 201 202 198 195 197 195 194 193 192 191 194 195 195 195 196 200 197 195 197 190 174 142 61 6 349 344 331 306 280 202 170 221 242 275 325 345 350 333 334 339 352 350
201 204 203 198 193 193 190 193 190 189 192 190 192 197 198 202 207 206 201 200 199 179 159 118 81 52 34 15 356 339 211 209 213 251 282 320 340 345 331 318 318 318 331
204 205 203 202 197 195 196 194 191 190 191 187 193 195 195 189 130 161 226 201 197 196 189 165 140 124 103 90 61 42 25 358 297 267 305 316 330 333 328 311 319 318 315
206 203 202 202 199 198 196 193 190 188 187 188 193 193 192 162 139 158 194 207 210 213 215 197 166 145 148 145 134 137 88 35 360 329 331 330 327 336 323 313 311 306 317
205 203 203 201 199 197 194 194 196 192 184 188 190 194 190 161 148 161 184 204 205 203 205 203 183 170 158 167 152 135 122 107 83 283 322 341 355 354 327 310 309 301 302
206 207 203 201 201 199 197 196 195 191 185 184 188 189 187 178 156 169 190 192 193 189 181 187 196 180 122 167 180 174 167 146 99 77 37 42 45 31 4 338 337 316 309
216 213 207 203 202 202 202 198 192 188 187 184 183 188 191 190 151 167 197 196 192 182 168 163 125 161 136 173 197 203 224 246 184 148 132 122 37 58 22 345 333 311 316
222 214 207 203 202 201 198 193 187 185 182 183 182 187 190 187 158 162 184 200 194 187 183 184 159 146 155 175 226 239 273 297 206 187 69 40 26 27 26 1 351 325 320
218 209 207 203 196 191 188 188 187 185 184 186 187 188 192 183 168 161 168 189 202 190 191 186 139 133 145 157 182 128 115 184 205 209 269 313 334 356 9 11 15 7 353
214 209 204 198 192 188 186 183 183 186 191 194 194 197 195 186 167 157 167 177 186 194 171 108 110 133 149 152 145 147 171 199 209 232 258 283 305 332 353 354 359 15 4
212 208 200 191 188 188 189 190 188 190 194 197 198 201 198 190 186 179 181 179 175 185 187 146 139 144 166 139 143 166 195 220 246 252 269 285 292 294 295 298 299 306 324
210 203 198 190 183 184 185 192 194 195 196 199 201 199 198 204 189 170 183 190 189 184 180 180 179 176 180 180 178 181 195 203 223 252 259 260 256 256 274 294 293 298 302
210 203 197 191 184 180 176 170 127 170 142 164 185 195 191 177 152 158 170 173 167 164 171 187 192 194 198 202 203 206 212 224 233 237 242 248 248 249 260 284 288 293 300
209 203 199 195 190 186 181 182 177 155 136 160 172 171 175 162 157 163 170 169 167 166 183 200 203 204 206 210 215 220 227 228 231 238 243 245 245 242 243 254 262 277 288
207 201 199 197 195 193 190 190 191 184 177 180 173 168 166 166 165 166 169 167 177 188 206 212 216 214 214 217 221 225 229 227 226 234 240 242 239 239 242 248 257 275 287
207 203 198 195 194 197 195 192 192 191 186 178 170 163 166 169 165 166 169 191 204 206 208 213 219 219 219 222 226 229 231 231 231 232 231 235 238 240 246 250 260 267 275
207 191 189 192 193 194 196 193 190 189 190 186 181 180 169 172 183 185 193 208 215 216 214 216 219 221 221 223 226 229 232 231 228 227 228 230 233 236 241 247 256 264 270
202 188 182 195 199 197 194 193 195 193 194 194 189 178 176 189 197 199 201 210 217 220 220 218 218 219 221 222 225 228 230 233 229 226 229 230 230 230 234 240 251 262 272
201 197 197 200 200 200 198 194 194 196 196 195 188 174 174 197 204 206 211 217 221 223 222 220 220 220 220 224 227 228 229 230 224 218 218 220 225 226 225 226 237 256 269
200 198 198 197 196 189 197 200 197 198 199 198 192 188 188 199 208 214 220 224 221 216 212 212 217 219 220 222 223 226 230 231 229 225 217 215 220 223 224 227 234 248 260
199 198 197 195 195 199 202 203 204 203 203 201 201 203 204 203 210 218 223 222 219 212 205 208 215 221 221 219 220 222 229 229 224 225 221 217 217 222 226 231 240 248 255
200 196 195 197 199 202 204 206 208 207 206 205 207 209 210 210 211 217 219 216 216 213 210 211 216 221 225 222 220 220 208 196 202 216 215 217 215 218 223 230 238 249 256
205 202 201 201 205 207 208 208 210 211 211 209 208 210 211 212 213 214 214 216 217 214 214 214 214 216 219 220 220 212 190 187 194 202 209 211 211 216 221 230 238 244 251
Height
1558 1559 1560 1561 1562 1563 1563 1564 1564 1565 1565 1566 1566 1567 1567 1567 1567 1566 1566 1566 1566 1566 1566 1565 1565 1564 1563 1563 1563 1562 1562 1562 1562 1562 1561 1560 1558 1557 1556 1555 1554 1552 1550
1556 1558 1559 1559 1560 1561 1562 1562 1563 1564 1564 1565 1565 1566 1566 1566 1566 1566 1566 1566 1566 1566 1565 1565 1565 1564 1563 1563 1562 1562 1561 1561 1561 1561 1560 1559 1558 1557 1555 1554 1553 1552 1550
1554 1555 1557 1558 1559 1559 1560 1561 1561 1562 1563 1564 1564 1565 1565 1565 1565 1565 1565 1565 1565 1565 1565 1564 1564 1564 1563 1562 1561 1561 1561 1560 1560 1560 1559 1558 1557 1556 1554 1553 1552 1550 1549
1552 1553 1554 1556 1556 1557 1558 1559 1560 1561 1561 1562 1563 1563 1564 1564 1564 1564 1564 1564 1564 1564 1564 1563 1563 1563 1562 1562 1561 1560 1560 1559 1559 1558 1558 1557 1556 1554 1553 1552 1551 1549 1548
1549 1550 1552 1553 1555 1555 1556 1557 1558 1559 1559 1560 1561 1561 1562 1562 1562 1563 1563 1563 1563 1563 1562 1562 1561 1561 1560 1560 1560 1559 1558 1558 1558 1557 1557 1556 1555 1553 1552 1551 1550 1549 1547
1546 1548 1549 1551 1552 1553 1554 1555 1556 1556 1557 1558 1559 1559 1560 1560 1561 1561 1561 1561 1561 1561 1561 1561 1560 1559 1559 1558 1558 1557 1557 1556 1556 1556 1555 1555 1553 1552 1551 1549 1549 1547 1546
1544 1545 1546 1548 1549 1550 1551 1552 1553 1554 1555 1556 1557 1557 1558 1558 1559 1559 1559 1559 1559 1559 1559 1559 1558 1558 1557 1557 1556 1556 1555 1555 1554 1554 1554 1553 1552 1550 1549 1548 1546 1545 1544
1541 1542 1543 1545 1546 1547 1549 1550 1551 1552 1553 1554 1554 1555 1556 1556 1556 1557 1557 1557 1557 1557 1557 1557 1556 1556 1555 1555 1555 1554 1554 1553 1552 1552 1551 1550 1549 1548 1547 1546 1544 1543 1542
1538 1539 1540 1541 1543 1544 1546 1547 1548 1549 1550 1551 1552 1553 1553 1554 1554 1554 1555 1555 1555 1555 1554 1554 1554 1554 1553 1553 1553 1553 1552 1551 1550 1549 1548 1548 1546 1545 1544 1543 1542 1541 1540
1534 1536 1537 1538 1540 1541 1543 1544 1545 1546 1547 1549 1549 1550 1550 1551 1551 1552 1552 1552 1552 1552 1552 1552 1552 1552 1551 1551 1551 1551 1550 1549 1549 1547 1546 1545 1544 1543 1542 1541 1540 1539 1538
1532 1533 1534 1535 1537 1538 1540 1541 1542 1544 1545 1545 1546 1547 1547 1548 1549 1549 1549 1550 1550 1550 1550 1550 1549 1549 1549 1549 1549 1549 1548 1547 1546 1545 1544 1543 1542 1541 1540 1538 1537 1536 1535
1529 1530 1531 1532 1534 1535 1536 1538 1539 1541 1542 1543 1543 1544 1545 1545 1546 1546 1547 1547 1547 1547 1547 1547 1547 1547 1547 1547 1546 1546 1545 1545 1544 1543 1542 1541 1540 1539 1537 1536 1535 1534 1533
1526 1527 1528 1529 1531 1532 1533 1535 1536 1537 1538 1539 1540 1541 1541 1542 1542 1543 1544 1544 1544 1544 1544 1545 1545 1545 1544 1544 1544 1543 1543 1542 1541 1541 1540 1539 1538 1536 1535 1534 1533 1531 1530
1523 1524 1525 1526 1527 1529 1530 1531 1532 1534 1534 1535 1536 1537 1538 1539 1539 1539 1540 1540 1541 1541 1541 1541 1542 1542 1542 1541 1541 1540 1540 1539 1538 1538 1537 1536 1535 1534 1533 1531 1530 1529 1527
1520 1521 1522 1522 1524 1525 1526 1527 1529 1530 1531 1532 1532 1533 1534 1535 1535 1536 1537 1537 1537 1538 1538 1538 1538 1538 1538 1538 1538 1537 1537 1536 1535 1535 1534 1533 1532 1531 1530 1529 1527 1526 1525
1516 1517 1518 1519 1520 1521 1522 1523 1525 1526 1527 1528 1529 1530 1531 1532 1532 1533 1533 1534 1534 1535 1535 1535 1535 1535 1535 1535 1535 1534 1534 1533 1532 1532 1531 1530 1529 1528 1527 1526 1525 1523 1522
1513 1513 1514 1516 1516 1517 1518 1519 1520 1522 1523 1524 1525 1526 1527 1527 1528 1529 1530 1530 1531 1531 1531 1531 1531 1531 1531 1531 1531 1531 1530 1529 1529 1528 1527 1527 1526 1525 1524 1522 1521 1520 1519
1509 1510 1511 1512 1513 1514 1515 1516 1517 1518 1519 1519 1521 1522 1523 1524 1525 1526 1526 1527 1527 1527 1526 1527 1527 1527 1527 1527 1527 1527 1526 1526 1525 1524 1523 1523 1522 1521 1520 1519 1518 1517 1516
1505 1506 1507 1508 1509 1510 1511 1512 1513 1514 1515 1516 1516 1518 1519 1520 1521 1522 1522 1523 1522 1522 1522 1523 1523 1523 1523 1523 1523 1522 1522 1522 1521 1520 1519 1519 1518 1517 1516 1515 1514 1513 1512
1501 1502 1503 1504 1505 1506 1507 1508 1509 1510 1511 1512 1512 1514 1515 1516 1516 1517 1517 1518 1518 1518 1518 1518 1518 1518 1519 1518 1518 1518 1518 1517 1517 1516 1515 1515 1514 1513 1512 1512 1511 1510 1509
1497 1498 1499 1500 1501 1502 1503 1504 1505 1506 1507 1508 1509 1510 1511 1512 1512 1513 1513 1513 1514 1514 1514 1514 1514 1514 1514 1514 1514 1513 1513 1513 1512 1511 1511 1511 1510 1509 1508 1508 1507 1506 1505
1494 1494 1495 1496 1497 1498 1499 1500 1501 1502 1503 1504 1505 1506 1507 1508 1509 1509 1509 1509 1509 1509 1509 1509 1509 1509 1509 1509 1509 1509 1508 1508 1507 1507 1506 1506 1506 1505 1504 1504 1503 1503 1502
1490 1491 1492 1493 1493 1494 1495 1496 1497 1498 1499 1500 1501 1502 1503 1504 1504 1504 1505 1505 1505 1505 1505 1505 1505 1505 1505 1505 1504 1504 1504 1503 1503 1503 1502 1502 1501 1501 1500 1500 1499 1499 1498
1487 1487 1488 1489 1490 1491 1491 1492 1493 1494 1495 1496 1497 1497 1498 1499 1500 1500 1500 1501 1501 1501 1500 1500 1500 1500 1500 1500 1500 1500 1499 1499 1498 1498 1498 1498 1497 1497 1496 1496 1495 1495 1494
1483 1483 1484 1485 1486 1487 1488 1488 1489 1490 1491 1491 1492 1493 1493 1494 1495 1495 1496 1496 1496 1496 1496 1496 1496 1496 1496 1496 1496 1495 1495 1495 1494 1494 1494 1493 1493 1493 1492 1492 1492 1491 1491
1479 1479 1480 1481 1482 1483 1484 1484 1485 1486 1486 1487 1488 1488 1489 1490 1490 1491 1491 1491 1491 1491 1491 1492 1492 1492 1492 1492 1491 1491 1491 1491 1490 1490 1490 1489 1489 1489 1489 1488 1488 1487 1487